This is the latest recevied weather packets stored in our database for station/object K4AXV-13. If no packets are shown the sender has not sent any weather packets the latest 10 day(s).
| Time | Temp. | Humidity | Pressure | Rain* | Wind** | Luminosity | Snow |
|---|---|---|---|---|---|---|---|
| 1778109103 | 25° C | - | - | 0 mm | 0 m/s | - | - |
| 1778108944 | 25.56° C | - | - | 0 mm | 0.45 m/s, 350° | - | - |
| 1778108801 | 25.56° C | - | - | 0 mm | 0.45 m/s, 350° | - | - |
| 1778108502 | 25.56° C | - | - | 0 mm | 0.45 m/s, 21° | - | - |
| 1778108198 | 26.11° C | - | - | 0 mm | 1.34 m/s, 307° | - | - |
| 1778107899 | 26.11° C | - | - | 0 mm | 0.45 m/s, 108° | - | - |
| 1778107297 | 26.11° C | - | - | 0 mm | 0.45 m/s, 325° | - | - |
| 1778106996 | 26.11° C | - | - | 0 mm | 0.45 m/s, 359° | - | - |
| 1778106394 | 26.67° C | - | - | 0 mm | 0.89 m/s, 304° | - | - |
| 1778106096 | 26.67° C | - | - | 0 mm | 0.45 m/s, 325° | - | - |
| 1778105791 | 26.67° C | - | - | 0 mm | 0.45 m/s, 323° | - | - |
| 1778105492 | 26.67° C | - | - | 0 mm | 0.89 m/s, 352° | - | - |
| 1778104892 | 27.22° C | - | - | 0 mm | 0.45 m/s, 70° | - | - |
| 1778104588 | 27.22° C | - | - | 0 mm | 0.89 m/s, 340° | - | - |
| 1778104288 | 27.22° C | - | - | 0 mm | 0 m/s | - | - |
| 1778103688 | 27.22° C | - | - | 0 mm | 0.89 m/s, 75° | - | - |
| 1778103386 | 27.22° C | - | - | 0 mm | 0.89 m/s, 115° | - | - |
| 1778102785 | 27.78° C | - | - | 0 mm | 0.89 m/s, 315° | - | - |
| 1778102184 | 28.33° C | - | - | 0 mm | 2.24 m/s, 10° | - | - |
| 1778100684 | 28.33° C | - | - | 0 mm | 1.34 m/s, 311° | - | - |
| 1778100380 | 28.89° C | - | - | 0 mm | 0.45 m/s, 301° | - | - |
| 1778100082 | 28.33° C | - | - | 0 mm | 1.79 m/s, 114° | - | - |
| 1778099779 | 29.44° C | - | - | 0 mm | 0.89 m/s, 124° | - | - |
| 1778099480 | 29.44° C | - | - | 0 mm | 0.45 m/s, 4° | - | - |
| 1778099178 | 29.44° C | - | - | 0 mm | 2.24 m/s, 262° | - | - |
* Rain latest hour (hover to see other rain measurements)
** Current wind speed in m/s (hover to see current wind gust speed)